Dyuyeboyun, Uzbekistan

5:52 AM +05 on February 24, 2017 (GMT +0500)
Urgench

Weather History for UTNU - October, 2012

Change the Weather History Date:

Sunday, October 7, 2012

  Actual Average Record
Temperature  
Mean Temperature 55 °F -  
Max Temperature 73 °F - - ()
Min Temperature 37 °F - - ()
Degree Days  
Heating Degree Days 10    
Growing Degree Days 5 (Base 50)    
Moisture  
Dew Point 31 °F    
Average Humidity 44    
Maximum Humidity 75    
Minimum Humidity 16    
Precipitation  
Precipitation 0.00 in - - ()
Sea Level Pressure  
Sea Level Pressure 30.19 in    
Wind  
Wind Speed 4 mph ()    
Max Wind Speed 7 mph    
Max Gust Speed -    
Visibility 3.9 miles    
Events      
T = Trace of Precipitation, MM = Missing Value Source: Averaged Metar Reports

Daily Weather History Graph

Daily Weather History Graph

Search for Another Location

Airport or City:

Trip Planner

Search our weather history database for the weather conditions in past years. The results will help you decide how hot, cold, wet, or windy it might be!

Date:

Astronomy

Oct. 07, 2012 Rise Set
Actual Time 7:00 AM +05 6:29 PM +05
Civil Twilight 6:33 AM +05 6:56 PM +05
Nautical Twilight 6:00 AM +05 7:28 PM +05
Astronomical Twilight 5:28 AM +05 8:01 PM +05
Moon 11:13 PM +05 (10/7) 1:24 PM +05 (10/7)
Length of Visible Light 12h 23m
Length of Day
11h 28m
Waning Gibbous, 60% of the Moon is Illuminated
Oct 7
Waning Gibbous
Oct 8
Last Quarter
Oct 15
New
Oct 22
First Quarter
Oct 30
Full

Hourly Weather History & Observations

Time (+05) Temp. Windchill Dew Point Humidity Pressure Visibility Wind Dir Wind Speed Gust Speed Precip Events Conditions
12:00 AM 48.2 °F - 28.4 °F 46% 30.21 in - ENE 6.7 mph - N/A   Clear
2:00 AM 42.8 °F - 28.4 °F 57% 30.21 in - NNE 2.2 mph - N/A   Clear
2:30 AM 41.0 °F - 28.4 °F 61% 30.21 in - ENE 2.2 mph - N/A   Clear
3:30 AM 41.0 °F - 28.4 °F 61% 30.21 in - NE 2.2 mph - N/A   Clear
4:00 AM 41.0 °F - 28.4 °F 61% 30.21 in - North 2.2 mph - N/A   Clear
4:30 AM 39.2 °F - 30.2 °F 70% 30.21 in - NNE 2.2 mph - N/A   Clear
5:00 AM 39.2 °F - 30.2 °F 70% 30.21 in - ENE 2.2 mph - N/A   Clear
5:30 AM 39.2 °F 36.0 °F 32.0 °F 75% 30.21 in - NE 4.5 mph - N/A   Clear
6:00 AM 39.2 °F - 30.2 °F 70% 30.21 in - Variable 2.2 mph - N/A   Clear
6:30 AM 37.4 °F 33.9 °F 30.2 °F 75% 30.21 in - NNE 4.5 mph - N/A   Clear
7:00 AM 39.2 °F 36.0 °F 30.2 °F 70% 30.21 in - NE 4.5 mph - N/A   Clear
7:30 AM 41.0 °F 36.5 °F 30.2 °F 65% 30.21 in - ENE 6.7 mph - N/A   Clear
8:00 AM 42.8 °F 40.2 °F 30.2 °F 61% 30.21 in - ENE 4.5 mph - N/A   Clear
8:30 AM 48.2 °F - 30.2 °F 50% 30.21 in - ENE 2.2 mph - N/A   Clear
9:00 AM 50.0 °F - 30.2 °F 47% 30.24 in - NE 4.5 mph - N/A   Clear
9:30 AM 53.6 °F - 32.0 °F 44% 30.24 in - ESE 6.7 mph - N/A   Clear
10:00 AM 57.2 °F - 30.2 °F 36% 30.24 in - East 6.7 mph - N/A   Clear
10:30 AM 59.0 °F - 30.2 °F 34% 30.24 in - East 4.5 mph - N/A   Clear
11:00 AM 62.6 °F - 30.2 °F 30% 30.24 in - East 4.5 mph - N/A   Clear
11:30 AM 64.4 °F - 32.0 °F 30% 30.21 in - East 6.7 mph - N/A   Clear
12:00 PM 66.2 °F - 28.4 °F 24% 30.21 in - East 6.7 mph - N/A   Clear
12:30 PM 68.0 °F - 30.2 °F 24% 30.21 in - East 6.7 mph - N/A   Clear
1:00 PM 68.0 °F - 30.2 °F 24% 30.18 in - NE 6.7 mph - N/A   Clear
1:30 PM 69.8 °F - 28.4 °F 21% 30.18 in - East 6.7 mph - N/A   Clear
2:00 PM 71.6 °F - 30.2 °F 22% 30.18 in - East 6.7 mph - N/A   Clear
2:30 PM 71.6 °F - 28.4 °F 20% 30.18 in - ENE 6.7 mph - N/A   Clear
3:00 PM 71.6 °F - 26.6 °F 19% 30.15 in - East 6.7 mph - N/A   Clear
3:30 PM 71.6 °F - 24.8 °F 17% 30.15 in - East 6.7 mph - N/A   Clear
4:00 PM 73.4 °F - 24.8 °F 16% 30.15 in - East 6.7 mph - N/A   Clear
4:30 PM 71.6 °F - 26.6 °F 19% 30.15 in - ENE 6.7 mph - N/A   Clear
5:00 PM 71.6 °F - 26.6 °F 19% 30.15 in - ENE 4.5 mph - N/A   Clear
5:30 PM 71.6 °F - 28.4 °F 20% 30.15 in - ENE 4.5 mph - N/A   Clear
6:00 PM 68.0 °F - 32.0 °F 26% 30.15 in - East 4.5 mph - N/A   Clear
6:30 PM 64.4 °F - 37.4 °F 37% 30.15 in - NE 2.2 mph - N/A   Clear
7:00 PM 60.8 °F - 37.4 °F 42% 30.15 in 5.0 mi NE 4.5 mph - N/A   Partly Cloudy
7:30 PM 60.8 °F - 33.8 °F 36% 30.15 in - NNW 2.2 mph - N/A   Clear
8:00 PM 57.2 °F - 33.8 °F 41% 30.15 in - NNE 2.2 mph - N/A   Clear
8:30 PM 55.4 °F - 35.6 °F 47% 30.15 in 3.7 mi NE 2.2 mph - N/A   Mostly Cloudy
9:00 PM 53.6 °F - 37.4 °F 54% 30.15 in 3.7 mi NNE 2.2 mph - N/A   Mostly Cloudy
9:30 PM 53.6 °F - 37.4 °F 54% 30.15 in 3.7 mi ENE 4.5 mph - N/A   Mostly Cloudy
10:00 PM 50.0 °F - 39.2 °F 66% 30.15 in 3.7 mi NE 2.2 mph - N/A   Scattered Clouds
10:30 PM 50.0 °F - 37.4 °F 62% 30.15 in 3.7 mi NE 2.2 mph - N/A   Partly Cloudy
11:00 PM 48.2 °F - 35.6 °F 62% 30.15 in 3.7 mi Calm Calm - N/A   Partly Cloudy
11:30 PM 48.2 °F - 35.6 °F 62% 30.15 in 3.7 mi Calm Calm - N/A   Partly Cloudy